Time,TemperatureF,DewpointF,PressureIn,WindDirection,WindDirectionDegrees,WindSpeedMPH,WindSpeedGustMPH,Humidity,HourlyPrecipIn,Conditions,Clouds,dailyrainin,SoftwareType,DateUTC
2013-08-31 00:02:00,82.1,66.3,29.82,West,266,0.0,0.0,59,0.00,,,0.00,WeatherCatV1.21B27,2013-08-31 05:02:00,
2013-08-31 00:07:00,81.5,66.2,29.82,West,266,0.0,0.0,60,0.00,,,0.00,WeatherCatV1.21B27,2013-08-31 05:07:00,
2013-08-31 00:12:00,81.3,66.1,29.82,West,265,0.0,0.0,60,0.00,,,0.00,WeatherCatV1.21B27,2013-08-31 05:12:00,
2013-08-31 00:17:00,81.4,66.6,29.83,West,266,0.0,0.0,61,0.00,,,0.00,WeatherCatV1.21B27,2013-08-31 05:17:00,
2013-08-31 00:22:00,81.4,67.1,29.83,West,266,0.0,0.0,62,0.00,,,0.00,WeatherCatV1.21B27,2013-08-31 05:22:00,
2013-08-31 00:27:00,81.2,67.8,29.83,West,266,0.0,0.0,64,0.00,,,0.00,WeatherCatV1.21B27,2013-08-31 05:27:00,
2013-08-31 00:32:00,81.5,67.7,29.83,West,266,0.0,0.0,63,0.00,,,0.00,WeatherCatV1.21B27,2013-08-31 05:32:00,
2013-08-31 00:37:00,81.5,66.7,29.83,SSE,158,0.0,0.0,61,0.00,,,0.00,WeatherCatV1.21B27,2013-08-31 05:37:00,
2013-08-31 00:42:00,82.3,67.9,29.83,South,181,1.0,2.0,62,0.00,,,0.00,WeatherCatV1.21B27,2013-08-31 05:42:00,
2013-08-31 00:47:00,83.3,67.4,29.83,South,188,2.0,2.0,59,0.00,,,0.00,WeatherCatV1.21B27,2013-08-31 05:47:00,
2013-08-31 00:52:00,83.8,67.9,29.83,SW,221,0.0,2.0,59,0.00,,,0.00,WeatherCatV1.21B27,2013-08-31 05:52:00,
2013-08-31 00:57:00,83.7,68.3,29.83,South,173,0.0,0.0,60,0.00,,,0.00,WeatherCatV1.21B27,2013-08-31 05:57:00,
2013-08-31 01:02:00,83.7,67.8,29.83,SSW,196,0.0,0.0,59,0.00,,,0.00,WeatherCatV1.21B27,2013-08-31 06:02:00,
2013-08-31 01:07:00,83.3,67.9,29.83,West,261,0.0,0.0,60,0.00,,,0.00,WeatherCatV1.21B27,2013-08-31 06:07:00,
2013-08-31 01:12:00,83.0,68.1,29.83,SW,217,0.0,0.0,61,0.00,,,0.00,WeatherCatV1.21B27,2013-08-31 06:12:00,
2013-08-31 01:17:00,82.7,68.3,29.83,SW,216,0.0,0.0,62,0.00,,,0.00,WeatherCatV1.21B27,2013-08-31 06:17:00,
2013-08-31 01:22:00,82.6,68.7,29.83,SW,216,0.0,0.0,63,0.00,,,0.00,WeatherCatV1.21B27,2013-08-31 06:22:00,
2013-08-31 01:27:00,82.4,68.0,29.83,SW,230,0.0,0.0,62,0.00,,,0.00,WeatherCatV1.21B27,2013-08-31 06:27:00,
2013-08-31 01:32:00,82.2,68.8,29.83,SW,231,0.0,0.0,64,0.00,,,0.00,WeatherCatV1.21B27,2013-08-31 06:32:00,
2013-08-31 01:37:00,81.9,68.5,29.83,SW,231,0.0,0.0,64,0.00,,,0.00,WeatherCatV1.21B27,2013-08-31 06:37:00,
2013-08-31 01:42:00,81.6,68.7,29.83,SW,231,0.0,0.0,65,0.00,,,0.00,WeatherCatV1.21B27,2013-08-31 06:42:00,
2013-08-31 01:47:00,81.3,68.4,29.84,SW,231,0.0,0.0,65,0.00,,,0.00,WeatherCatV1.21B27,2013-08-31 06:47:00,
2013-08-31 01:52:00,81.2,68.7,29.83,SW,231,0.0,0.0,66,0.00,,,0.00,WeatherCatV1.21B27,2013-08-31 06:52:00,
2013-08-31 01:57:00,81.2,68.7,29.83,SSW,212,0.0,0.0,66,0.00,,,0.00,WeatherCatV1.21B27,2013-08-31 06:57:00,
2013-08-31 02:02:00,81.4,68.5,29.84,WSW,257,0.0,0.0,65,0.00,,,0.00,WeatherCatV1.21B27,2013-08-31 07:02:00,
2013-08-31 02:07:00,81.7,69.2,29.84,WSW,242,0.0,0.0,66,0.00,,,0.00,WeatherCatV1.21B27,2013-08-31 07:07:00,
2013-08-31 02:12:00,81.6,69.1,29.84,WSW,243,0.0,0.0,66,0.00,,,0.00,WeatherCatV1.21B27,2013-08-31 07:12:00,
2013-08-31 02:17:00,81.7,68.8,29.83,WSW,243,0.0,0.0,65,0.00,,,0.00,WeatherCatV1.21B27,2013-08-31 07:17:00,
2013-08-31 02:22:00,81.7,68.8,29.83,WSW,243,0.0,0.0,65,0.00,,,0.00,WeatherCatV1.21B27,2013-08-31 07:22:00,
2013-08-31 02:27:00,81.7,68.8,29.84,West,264,0.0,1.0,65,0.00,,,0.00,WeatherCatV1.21B27,2013-08-31 07:27:00,
2013-08-31 02:32:00,81.7,69.2,29.84,WSW,245,0.0,0.0,66,0.00,,,0.00,WeatherCatV1.21B27,2013-08-31 07:32:00,
2013-08-31 02:37:00,81.4,69.4,29.83,WSW,245,0.0,0.0,67,0.00,,,0.00,WeatherCatV1.21B27,2013-08-31 07:37:00,
2013-08-31 02:42:00,81.2,69.2,29.84,WSW,252,0.0,0.0,67,0.00,,,0.00,WeatherCatV1.21B27,2013-08-31 07:42:00,
2013-08-31 02:47:00,81.1,69.1,29.84,WNW,300,0.0,0.0,67,0.00,,,0.00,WeatherCatV1.21B27,2013-08-31 07:47:00,
2013-08-31 02:52:00,80.9,68.9,29.84,WSW,251,0.0,0.0,67,0.00,,,0.00,WeatherCatV1.21B27,2013-08-31 07:52:00,
2013-08-31 02:57:00,80.8,68.8,29.84,WSW,251,0.0,0.0,67,0.00,,,0.00,WeatherCatV1.21B27,2013-08-31 07:57:00,
2013-08-31 03:02:00,80.6,69.0,29.84,WSW,251,0.0,0.0,68,0.00,,,0.00,WeatherCatV1.21B27,2013-08-31 08:02:00,
2013-08-31 03:07:00,80.5,68.9,29.84,WSW,251,0.0,0.0,68,0.00,,,0.00,WeatherCatV1.21B27,2013-08-31 08:07:00,
2013-08-31 03:12:00,80.2,69.1,29.84,WSW,251,0.0,0.0,69,0.00,,,0.00,WeatherCatV1.21B27,2013-08-31 08:12:00,
2013-08-31 03:17:00,80.0,68.9,29.85,WSW,251,0.0,0.0,69,0.00,,,0.00,WeatherCatV1.21B27,2013-08-31 08:17:00,
2013-08-31 03:22:00,79.7,69.0,29.85,WSW,251,0.0,0.0,70,0.00,,,0.00,WeatherCatV1.21B27,2013-08-31 08:22:00,
2013-08-31 03:27:00,79.6,68.9,29.85,WSW,251,0.0,0.0,70,0.00,,,0.00,WeatherCatV1.21B27,2013-08-31 08:27:00,
2013-08-31 03:32:00,79.3,69.1,29.85,WSW,251,0.0,0.0,71,0.00,,,0.00,WeatherCatV1.21B27,2013-08-31 08:32:00,
2013-08-31 03:37:00,79.2,69.0,29.84,WSW,251,0.0,0.0,71,0.00,,,0.00,WeatherCatV1.21B27,2013-08-31 08:37:00,
2013-08-31 03:42:00,79.1,68.9,29.85,WSW,251,0.0,0.0,71,0.00,,,0.00,WeatherCatV1.21B27,2013-08-31 08:42:00,
2013-08-31 03:47:00,79.0,68.8,29.85,WSW,251,0.0,0.0,71,0.00,,,0.00,WeatherCatV1.21B27,2013-08-31 08:47:00,
2013-08-31 03:52:00,78.9,68.7,29.85,WSW,251,0.0,0.0,71,0.00,,,0.00,WeatherCatV1.21B27,2013-08-31 08:52:00,
2013-08-31 03:57:00,78.8,68.6,29.85,WSW,251,0.0,0.0,71,0.00,,,0.00,WeatherCatV1.21B27,2013-08-31 08:57:00,
2013-08-31 04:02:00,78.5,68.3,29.85,WSW,251,0.0,0.0,71,0.00,,,0.00,WeatherCatV1.21B27,2013-08-31 09:02:00,
2013-08-31 04:07:00,78.2,68.4,29.85,WSW,251,0.0,0.0,72,0.00,,,0.00,WeatherCatV1.21B27,2013-08-31 09:07:00,
2013-08-31 04:12:00,77.9,68.5,29.85,WSW,251,0.0,0.0,73,0.00,,,0.00,WeatherCatV1.21B27,2013-08-31 09:12:00,
2013-08-31 04:17:00,77.5,67.7,29.85,WSW,251,0.0,0.0,72,0.00,,,0.00,WeatherCatV1.21B27,2013-08-31 09:17:00,
2013-08-31 04:22:00,77.3,67.9,29.85,WSW,251,0.0,0.0,73,0.00,,,0.00,WeatherCatV1.21B27,2013-08-31 09:22:00,
2013-08-31 04:27:00,77.0,68.1,29.85,WSW,251,0.0,0.0,74,0.00,,,0.00,WeatherCatV1.21B27,2013-08-31 09:27:00,
2013-08-31 04:32:00,76.7,67.8,29.84,WSW,251,0.0,0.0,74,0.00,,,0.00,WeatherCatV1.21B27,2013-08-31 09:32:00,
2013-08-31 04:37:00,76.4,67.5,29.84,WSW,251,0.0,0.0,74,0.00,,,0.00,WeatherCatV1.21B27,2013-08-31 09:37:00,
2013-08-31 04:42:00,76.3,67.4,29.85,WSW,251,0.0,0.0,74,0.00,,,0.00,WeatherCatV1.21B27,2013-08-31 09:42:00,
2013-08-31 04:47:00,76.1,67.6,29.85,WSW,252,0.0,0.0,75,0.00,,,0.00,WeatherCatV1.21B27,2013-08-31 09:47:00,
2013-08-31 04:52:00,75.8,67.3,29.85,WSW,252,0.0,0.0,75,0.00,,,0.00,WeatherCatV1.21B27,2013-08-31 09:52:00,
2013-08-31 04:57:00,75.7,67.2,29.85,WSW,252,0.0,0.0,75,0.00,,,0.00,WeatherCatV1.21B27,2013-08-31 09:57:00,
2013-08-31 05:02:00,75.6,67.9,29.85,WSW,252,0.0,0.0,77,0.00,,,0.00,WeatherCatV1.21B27,2013-08-31 10:02:00,
2013-08-31 05:07:00,75.5,67.4,29.85,WSW,252,0.0,0.0,76,0.00,,,0.00,WeatherCatV1.21B27,2013-08-31 10:07:00,
2013-08-31 05:12:00,75.3,67.2,29.84,WSW,252,0.0,0.0,76,0.00,,,0.00,WeatherCatV1.21B27,2013-08-31 10:12:00,
2013-08-31 05:17:00,75.2,67.1,29.84,WSW,252,0.0,0.0,76,0.00,,,0.00,WeatherCatV1.21B27,2013-08-31 10:17:00,
2013-08-31 05:22:00,75.0,66.9,29.85,WSW,252,0.0,0.0,76,0.00,,,0.00,WeatherCatV1.21B27,2013-08-31 10:22:00,
2013-08-31 05:27:00,74.7,67.0,29.85,WSW,252,0.0,0.0,77,0.00,,,0.00,WeatherCatV1.21B27,2013-08-31 10:27:00,
2013-08-31 05:32:00,74.6,66.9,29.85,WSW,252,0.0,0.0,77,0.00,,,0.00,WeatherCatV1.21B27,2013-08-31 10:32:00,
2013-08-31 05:37:00,74.5,67.2,29.85,WSW,252,0.0,0.0,78,0.00,,,0.00,WeatherCatV1.21B27,2013-08-31 10:37:00,
2013-08-31 05:42:00,74.2,66.5,29.85,WSW,252,0.0,0.0,77,0.00,,,0.00,WeatherCatV1.21B27,2013-08-31 10:42:00,
2013-08-31 05:47:00,73.9,66.6,29.85,WSW,252,0.0,0.0,78,0.00,,,0.00,WeatherCatV1.21B27,2013-08-31 10:47:00,
2013-08-31 05:52:00,73.7,66.8,29.85,WSW,252,0.0,0.0,79,0.00,,,0.00,WeatherCatV1.21B27,2013-08-31 10:52:00,
2013-08-31 05:57:00,73.6,67.0,29.85,WSW,252,0.0,0.0,80,0.00,,,0.00,WeatherCatV1.21B27,2013-08-31 10:57:00,
2013-08-31 06:02:00,73.4,66.5,29.85,WSW,252,0.0,0.0,79,0.00,,,0.00,WeatherCatV1.21B27,2013-08-31 11:02:00,
2013-08-31 06:07:00,73.3,67.1,29.85,WSW,252,0.0,0.0,81,0.00,,,0.00,WeatherCatV1.21B27,2013-08-31 11:07:00,
2013-08-31 06:12:00,73.3,67.1,29.85,WSW,252,0.0,0.0,81,0.00,,,0.00,WeatherCatV1.21B27,2013-08-31 11:12:00,
2013-08-31 06:17:00,73.3,67.1,29.85,WSW,252,0.0,0.0,81,0.00,,,0.00,WeatherCatV1.21B27,2013-08-31 11:17:00,
2013-08-31 06:22:00,73.2,66.7,29.85,WSW,252,0.0,0.0,80,0.00,,,0.00,WeatherCatV1.21B27,2013-08-31 11:22:00,
2013-08-31 06:27:00,73.0,66.8,29.85,WSW,252,0.0,0.0,81,0.00,,,0.00,WeatherCatV1.21B27,2013-08-31 11:27:00,
2013-08-31 06:32:00,73.0,67.2,29.85,WSW,252,0.0,0.0,82,0.00,,,0.00,WeatherCatV1.21B27,2013-08-31 11:32:00,
2013-08-31 06:37:00,73.0,66.8,29.85,WSW,252,0.0,0.0,81,0.00,,,0.00,WeatherCatV1.21B27,2013-08-31 11:37:00,
2013-08-31 06:42:00,73.0,66.8,29.85,WSW,252,0.0,0.0,81,0.00,,,0.00,WeatherCatV1.21B27,2013-08-31 11:42:00,
2013-08-31 06:47:00,72.8,66.6,29.86,WSW,252,0.0,0.0,81,0.00,,,0.00,WeatherCatV1.21B27,2013-08-31 11:47:00,
2013-08-31 06:52:00,72.7,66.9,29.86,WSW,252,0.0,0.0,82,0.00,,,0.00,WeatherCatV1.21B27,2013-08-31 11:52:00,
2013-08-31 06:57:00,72.6,66.8,29.86,WSW,252,0.0,0.0,82,0.00,,,0.00,WeatherCatV1.21B27,2013-08-31 11:57:00,
2013-08-31 07:02:00,72.6,66.8,29.86,WSW,252,0.0,0.0,82,0.00,,,0.00,WeatherCatV1.21B27,2013-08-31 12:02:00,
2013-08-31 07:07:00,72.7,67.2,29.86,WSW,252,0.0,0.0,83,0.00,,,0.00,WeatherCatV1.21B27,2013-08-31 12:07:00,
2013-08-31 07:12:00,72.7,67.2,29.86,WSW,252,0.0,0.0,83,0.00,,,0.00,WeatherCatV1.21B27,2013-08-31 12:12:00,
2013-08-31 07:17:00,72.7,67.2,29.86,WSW,252,0.0,0.0,83,0.00,,,0.00,WeatherCatV1.21B27,2013-08-31 12:17:00,
2013-08-31 07:22:00,72.7,67.6,29.86,WSW,252,0.0,0.0,84,0.00,,,0.00,WeatherCatV1.21B27,2013-08-31 12:22:00,
2013-08-31 07:27:00,72.7,67.2,29.86,WSW,252,0.0,0.0,83,0.00,,,0.00,WeatherCatV1.21B27,2013-08-31 12:27:00,
2013-08-31 07:32:00,72.7,67.6,29.86,WSW,252,0.0,0.0,84,0.00,,,0.00,WeatherCatV1.21B27,2013-08-31 12:32:00,
2013-08-31 07:37:00,72.8,67.7,29.87,WSW,252,0.0,0.0,84,0.00,,,0.00,WeatherCatV1.21B27,2013-08-31 12:37:00,
2013-08-31 07:42:00,72.9,67.8,29.86,WSW,252,0.0,0.0,84,0.00,,,0.00,WeatherCatV1.21B27,2013-08-31 12:42:00,
2013-08-31 07:47:00,73.2,68.1,29.86,WSW,252,0.0,0.0,84,0.00,,,0.00,WeatherCatV1.21B27,2013-08-31 12:47:00,
2013-08-31 07:52:00,73.6,68.4,29.87,WSW,252,0.0,0.0,84,0.00,,,0.00,WeatherCatV1.21B27,2013-08-31 12:52:00,
2013-08-31 07:57:00,73.8,68.7,29.87,WSW,252,0.0,0.0,84,0.00,,,0.00,WeatherCatV1.21B27,2013-08-31 12:57:00,
2013-08-31 08:02:00,74.2,68.7,29.87,WSW,252,0.0,0.0,83,0.00,,,0.00,WeatherCatV1.21B27,2013-08-31 13:02:00,
2013-08-31 08:07:00,74.6,69.1,29.87,WSW,252,0.0,0.0,83,0.00,,,0.00,WeatherCatV1.21B27,2013-08-31 13:07:00,
2013-08-31 08:12:00,75.1,69.2,29.87,WSW,252,0.0,0.0,82,0.00,,,0.00,WeatherCatV1.21B27,2013-08-31 13:12:00,
2013-08-31 08:17:00,75.6,69.7,29.87,WSW,252,0.0,0.0,82,0.00,,,0.00,WeatherCatV1.21B27,2013-08-31 13:17:00,
2013-08-31 08:22:00,76.1,69.8,29.87,WSW,252,0.0,0.0,81,0.00,,,0.00,WeatherCatV1.21B27,2013-08-31 13:22:00,
2013-08-31 08:27:00,76.7,70.1,29.88,WSW,252,0.0,0.0,80,0.00,,,0.00,WeatherCatV1.21B27,2013-08-31 13:27:00,
2013-08-31 08:32:00,77.3,69.9,29.88,SW,219,0.0,0.0,78,0.00,,,0.00,WeatherCatV1.21B27,2013-08-31 13:32:00,
2013-08-31 08:37:00,78.0,69.8,29.88,SW,219,0.0,0.0,76,0.00,,,0.00,WeatherCatV1.21B27,2013-08-31 13:37:00,
2013-08-31 08:42:00,78.6,70.0,29.88,SSW,212,0.0,0.0,75,0.00,,,0.00,WeatherCatV1.21B27,2013-08-31 13:42:00,
2013-08-31 08:47:00,79.1,70.1,29.88,SSW,213,0.0,0.0,74,0.00,,,0.00,WeatherCatV1.21B27,2013-08-31 13:47:00,
2013-08-31 08:52:00,79.6,69.3,29.88,ENE,71,0.0,4.0,71,0.00,,,0.00,WeatherCatV1.21B27,2013-08-31 13:52:00,
2013-08-31 08:57:00,80.1,69.8,29.88,SSE,156,0.0,0.0,71,0.00,,,0.00,WeatherCatV1.21B27,2013-08-31 13:57:00,
2013-08-31 09:02:00,80.5,69.4,29.88,South,185,0.0,0.0,69,0.00,,,0.00,WeatherCatV1.21B27,2013-08-31 14:02:00,
2013-08-31 09:07:00,81.0,69.4,29.88,East,83,0.0,1.0,68,0.00,,,0.00,WeatherCatV1.21B27,2013-08-31 14:07:00,
2013-08-31 09:12:00,81.5,68.6,29.88,SW,219,2.0,5.0,65,0.00,,,0.00,WeatherCatV1.21B27,2013-08-31 14:12:00,
2013-08-31 09:17:00,82.3,68.9,29.88,South,188,4.0,4.0,64,0.00,,,0.00,WeatherCatV1.21B27,2013-08-31 14:17:00,
2013-08-31 09:22:00,83.0,69.1,29.88,WSW,248,0.0,4.0,63,0.00,,,0.00,WeatherCatV1.21B27,2013-08-31 14:22:00,
2013-08-31 09:27:00,83.9,69.5,29.88,WSW,237,1.0,3.0,62,0.00,,,0.00,WeatherCatV1.21B27,2013-08-31 14:27:00,
2013-08-31 09:32:00,84.6,69.2,29.88,SSW,200,3.0,4.0,60,0.00,,,0.00,WeatherCatV1.21B27,2013-08-31 14:32:00,
2013-08-31 09:37:00,85.3,69.3,29.88,SW,218,3.0,5.0,59,0.00,,,0.00,WeatherCatV1.21B27,2013-08-31 14:37:00,
2013-08-31 09:42:00,85.9,69.9,29.87,East,100,1.0,2.0,59,0.00,,,0.00,WeatherCatV1.21B27,2013-08-31 14:42:00,
2013-08-31 09:47:00,87.1,70.0,29.88,SW,215,2.0,2.0,57,0.00,,,0.00,WeatherCatV1.21B27,2013-08-31 14:47:00,
2013-08-31 09:52:00,87.1,68.9,29.87,SW,221,4.0,4.0,55,0.00,,,0.00,WeatherCatV1.21B27,2013-08-31 14:52:00,
2013-08-31 09:57:00,87.3,68.6,29.87,South,182,2.0,3.0,54,0.00,,,0.00,WeatherCatV1.21B27,2013-08-31 14:57:00,
2013-08-31 10:02:00,87.9,68.6,29.87,SW,214,1.0,2.0,53,0.00,,,0.00,WeatherCatV1.21B27,2013-08-31 15:02:00,
2013-08-31 10:07:00,89.0,69.6,29.87,SW,217,3.0,3.0,53,0.00,,,0.00,WeatherCatV1.21B27,2013-08-31 15:07:00,
2013-08-31 10:12:00,90.2,70.2,29.87,South,169,2.0,3.0,52,0.00,,,0.00,WeatherCatV1.21B27,2013-08-31 15:12:00,
2013-08-31 10:17:00,90.9,69.1,29.87,SSW,212,2.0,4.0,49,0.00,,,0.00,WeatherCatV1.21B27,2013-08-31 15:17:00,
2013-08-31 10:22:00,90.9,69.1,29.87,ESE,115,2.0,7.0,49,0.00,,,0.00,WeatherCatV1.21B27,2013-08-31 15:22:00,
2013-08-31 10:27:00,91.6,69.1,29.87,ESE,111,3.0,5.0,48,0.00,,,0.00,WeatherCatV1.21B27,2013-08-31 15:27:00,
2013-08-31 10:32:00,92.1,68.9,29.87,SSW,207,0.0,2.0,47,0.00,,,0.00,WeatherCatV1.21B27,2013-08-31 15:32:00,
2013-08-31 10:37:00,92.7,68.8,29.87,SE,137,2.0,6.0,46,0.00,,,0.00,WeatherCatV1.21B27,2013-08-31 15:37:00,
2013-08-31 10:42:00,93.1,69.2,29.87,WSW,244,2.0,3.0,46,0.00,,,0.00,WeatherCatV1.21B27,2013-08-31 15:42:00,
2013-08-31 10:47:00,94.0,69.4,29.87,ESE,102,2.0,3.0,45,0.00,,,0.00,WeatherCatV1.21B27,2013-08-31 15:47:00,
2013-08-31 10:52:00,94.4,68.4,29.87,West,260,0.0,4.0,43,0.00,,,0.00,WeatherCatV1.21B27,2013-08-31 15:52:00,
2013-08-31 10:57:00,94.6,67.9,29.86,SW,233,2.0,5.0,42,0.00,,,0.00,WeatherCatV1.21B27,2013-08-31 15:57:00,
2013-08-31 11:02:00,94.8,68.8,29.86,SSW,194,2.0,5.0,43,0.00,,,0.00,WeatherCatV1.21B27,2013-08-31 16:02:00,
2013-08-31 11:07:00,95.3,69.2,29.86,South,186,3.0,3.0,43,0.00,,,0.00,WeatherCatV1.21B27,2013-08-31 16:07:00,
2013-08-31 11:12:00,95.9,68.3,29.86,West,281,2.0,3.0,41,0.00,,,0.00,WeatherCatV1.21B27,2013-08-31 16:12:00,
2013-08-31 11:17:00,95.2,67.0,29.86,SW,223,2.0,8.0,40,0.00,,,0.00,WeatherCatV1.21B27,2013-08-31 16:17:00,
2013-08-31 11:22:00,95.6,68.8,29.86,SE,126,3.0,3.0,42,0.00,,,0.00,WeatherCatV1.21B27,2013-08-31 16:22:00,
2013-08-31 11:27:00,96.1,67.8,29.86,East,100,3.0,5.0,40,0.00,,,0.00,WeatherCatV1.21B27,2013-08-31 16:27:00,
2013-08-31 11:32:00,96.6,66.8,29.85,West,259,0.0,4.0,38,0.00,,,0.00,WeatherCatV1.21B27,2013-08-31 16:32:00,
2013-08-31 11:37:00,96.5,65.9,29.85,SW,236,2.0,4.0,37,0.00,,,0.00,WeatherCatV1.21B27,2013-08-31 16:37:00,
2013-08-31 11:42:00,96.7,65.3,29.85,SE,128,3.0,5.0,36,0.00,,,0.00,WeatherCatV1.21B27,2013-08-31 16:42:00,
2013-08-31 11:47:00,97.2,66.5,29.85,West,276,1.0,3.0,37,0.00,,,0.00,WeatherCatV1.21B27,2013-08-31 16:47:00,
2013-08-31 11:52:00,97.4,67.5,29.85,WSW,252,2.0,3.0,38,0.00,,,0.00,WeatherCatV1.21B27,2013-08-31 16:52:00,
2013-08-31 11:57:00,98.0,66.4,29.85,West,262,1.0,4.0,36,0.00,,,0.00,WeatherCatV1.21B27,2013-08-31 16:57:00,
2013-08-31 12:02:00,98.2,66.6,29.85,WSW,252,0.0,4.0,36,0.00,,,0.00,WeatherCatV1.21B27,2013-08-31 17:02:00,
2013-08-31 12:07:00,98.0,65.6,29.85,WSW,239,0.0,3.0,35,0.00,,,0.00,WeatherCatV1.21B27,2013-08-31 17:07:00,
2013-08-31 12:12:00,98.5,66.1,29.85,WNW,299,0.0,3.0,35,0.00,,,0.00,WeatherCatV1.21B27,2013-08-31 17:12:00,
2013-08-31 12:17:00,99.1,67.4,29.84,WSW,250,2.0,3.0,36,0.00,,,0.00,WeatherCatV1.21B27,2013-08-31 17:17:00,
2013-08-31 12:22:00,100.0,65.7,29.85,SW,217,6.0,6.0,33,0.00,,,0.00,WeatherCatV1.21B27,2013-08-31 17:22:00,
2013-08-31 12:27:00,100.0,65.7,29.84,West,271,2.0,3.0,33,0.00,,,0.00,WeatherCatV1.21B27,2013-08-31 17:27:00,
2013-08-31 12:32:00,100.8,67.2,29.84,South,172,1.0,2.0,34,0.00,,,0.00,WeatherCatV1.21B27,2013-08-31 17:32:00,
2013-08-31 12:37:00,101.9,66.4,29.84,NW,306,0.0,1.0,32,0.00,,,0.00,WeatherCatV1.21B27,2013-08-31 17:37:00,
2013-08-31 12:42:00,102.0,66.5,29.83,SE,131,1.0,6.0,32,0.00,,,0.00,WeatherCatV1.21B27,2013-08-31 17:42:00,
2013-08-31 12:47:00,101.9,66.4,29.83,SSE,156,1.0,2.0,32,0.00,,,0.00,WeatherCatV1.21B27,2013-08-31 17:47:00,
2013-08-31 12:52:00,102.4,66.8,29.83,East,98,1.0,5.0,32,0.00,,,0.00,WeatherCatV1.21B27,2013-08-31 17:52:00,
2013-08-31 12:57:00,102.4,65.0,29.83,South,180,1.0,5.0,30,0.00,,,0.00,WeatherCatV1.21B27,2013-08-31 17:57:00,
2013-08-31 13:02:00,102.7,65.2,29.83,SSE,148,1.0,4.0,30,0.00,,,0.00,WeatherCatV1.21B27,2013-08-31 18:02:00,
2013-08-31 13:07:00,103.6,64.0,29.82,WNW,289,0.0,1.0,28,0.00,,,0.00,WeatherCatV1.21B27,2013-08-31 18:07:00,
2013-08-31 13:12:00,103.3,64.8,29.82,NNE,21,4.0,4.0,29,0.00,,,0.00,WeatherCatV1.21B27,2013-08-31 18:12:00,
2013-08-31 13:17:00,102.9,65.4,29.82,West,274,1.0,3.0,30,0.00,,,0.00,WeatherCatV1.21B27,2013-08-31 18:17:00,
2013-08-31 13:23:00,102.3,65.8,29.82,SW,217,0.0,2.0,31,0.00,,,0.00,WeatherCatV1.21B27,2013-08-31 18:23:00,
2013-08-31 13:28:00,102.6,65.2,29.82,WNW,292,0.0,3.0,30,0.00,,,0.00,WeatherCatV1.21B27,2013-08-31 18:28:00,
2013-08-31 13:33:00,103.1,65.6,29.81,South,188,1.0,3.0,30,0.00,,,0.00,WeatherCatV1.21B27,2013-08-31 18:33:00,
2013-08-31 13:38:00,104.2,65.5,29.81,SSE,160,2.0,3.0,29,0.00,,,0.00,WeatherCatV1.21B27,2013-08-31 18:38:00,
2013-08-31 13:43:00,104.8,65.0,29.81,SE,136,3.0,4.0,28,0.00,,,0.00,WeatherCatV1.21B27,2013-08-31 18:43:00,
2013-08-31 13:48:00,104.5,64.8,29.81,ESE,117,1.0,4.0,28,0.00,,,0.00,WeatherCatV1.21B27,2013-08-31 18:48:00,
2013-08-31 13:53:00,104.4,64.7,29.80,West,269,1.0,3.0,28,0.00,,,0.00,WeatherCatV1.21B27,2013-08-31 18:53:00,
2013-08-31 13:58:00,105.3,64.4,29.80,East,101,5.0,5.0,27,0.00,,,0.00,WeatherCatV1.21B27,2013-08-31 18:58:00,
2013-08-31 14:03:00,104.9,64.1,29.80,SSE,158,2.0,5.0,27,0.00,,,0.00,WeatherCatV1.21B27,2013-08-31 19:03:00,
2013-08-31 14:08:00,105.1,64.2,29.80,SW,228,0.0,3.0,27,0.00,,,0.00,WeatherCatV1.21B27,2013-08-31 19:08:00,
2013-08-31 14:13:00,104.8,62.9,29.80,SW,233,2.0,4.0,26,0.00,,,0.00,WeatherCatV1.21B27,2013-08-31 19:13:00,
2013-08-31 14:18:00,104.5,62.7,29.79,WSW,255,1.0,3.0,26,0.00,,,0.00,WeatherCatV1.21B27,2013-08-31 19:18:00,
2013-08-31 14:23:00,104.3,62.5,29.79,West,279,0.0,4.0,26,0.00,,,0.00,WeatherCatV1.21B27,2013-08-31 19:23:00,
2013-08-31 14:28:00,104.0,63.3,29.79,WNW,283,1.0,3.0,27,0.00,,,0.00,WeatherCatV1.21B27,2013-08-31 19:28:00,
2013-08-31 14:33:00,103.8,63.2,29.79,NE,56,0.0,1.0,27,0.00,,,0.00,WeatherCatV1.21B27,2013-08-31 19:33:00,
2013-08-31 14:38:00,104.7,61.7,29.79,SSW,203,3.0,3.0,25,0.00,,,0.00,WeatherCatV1.21B27,2013-08-31 19:38:00,
2013-08-31 14:43:00,104.3,61.4,29.78,West,281,1.0,7.0,25,0.00,,,0.00,WeatherCatV1.21B27,2013-08-31 19:43:00,
2013-08-31 14:48:00,103.8,61.0,29.78,ESE,123,1.0,2.0,25,0.00,,,0.00,WeatherCatV1.21B27,2013-08-31 19:48:00,
2013-08-31 14:53:00,104.8,60.7,29.78,SSE,151,3.0,6.0,24,0.00,,,0.00,WeatherCatV1.21B27,2013-08-31 19:53:00,
2013-08-31 14:58:00,105.3,62.2,29.78,ESE,121,4.0,4.0,25,0.00,,,0.00,WeatherCatV1.21B27,2013-08-31 19:58:00,
2013-08-31 15:03:00,105.1,60.9,29.78,SSE,152,1.0,4.0,24,0.00,,,0.00,WeatherCatV1.21B27,2013-08-31 20:03:00,
2013-08-31 15:08:00,105.5,61.2,29.77,WSW,243,2.0,4.0,24,0.00,,,0.00,WeatherCatV1.21B27,2013-08-31 20:08:00,
2013-08-31 15:13:00,105.5,60.0,29.77,SE,143,2.0,3.0,23,0.00,,,0.00,WeatherCatV1.21B27,2013-08-31 20:13:00,
2013-08-31 15:18:00,105.5,60.0,29.77,NNE,28,0.0,1.0,23,0.00,,,0.00,WeatherCatV1.21B27,2013-08-31 20:18:00,
2013-08-31 15:23:00,104.6,60.5,29.77,WNW,299,1.0,5.0,24,0.00,,,0.00,WeatherCatV1.21B27,2013-08-31 20:23:00,
2013-08-31 15:28:00,104.9,60.7,29.77,SW,221,1.0,5.0,24,0.00,,,0.00,WeatherCatV1.21B27,2013-08-31 20:28:00,
2013-08-31 15:33:00,105.3,61.1,29.77,SE,141,1.0,5.0,24,0.00,,,0.00,WeatherCatV1.21B27,2013-08-31 20:33:00,
2013-08-31 15:38:00,105.6,62.5,29.76,NE,54,3.0,5.0,25,0.00,,,0.00,WeatherCatV1.21B27,2013-08-31 20:38:00,
2013-08-31 15:43:00,105.6,62.5,29.76,SSW,212,2.0,4.0,25,0.00,,,0.00,WeatherCatV1.21B27,2013-08-31 20:43:00,
2013-08-31 15:48:00,105.5,63.5,29.76,East,97,2.0,4.0,26,0.00,,,0.00,WeatherCatV1.21B27,2013-08-31 20:48:00,
2013-08-31 15:53:00,105.5,61.2,29.76,West,274,1.0,3.0,24,0.00,,,0.00,WeatherCatV1.21B27,2013-08-31 20:53:00,
2013-08-31 15:58:00,104.2,61.3,29.75,SW,235,1.0,1.0,25,0.00,,,0.00,WeatherCatV1.21B27,2013-08-31 20:58:00,
2013-08-31 16:03:00,104.1,62.3,29.75,South,185,1.0,3.0,26,0.00,,,0.00,WeatherCatV1.21B27,2013-08-31 21:03:00,
2013-08-31 16:08:00,104.0,64.4,29.75,SSW,212,2.0,4.0,28,0.00,,,0.00,WeatherCatV1.21B27,2013-08-31 21:08:00,
2013-08-31 16:13:00,104.5,62.7,29.75,South,186,1.0,5.0,26,0.00,,,0.00,WeatherCatV1.21B27,2013-08-31 21:13:00,
2013-08-31 16:18:00,105.3,63.3,29.75,South,176,1.0,2.0,26,0.00,,,0.00,WeatherCatV1.21B27,2013-08-31 21:18:00,
2013-08-31 16:23:00,106.2,61.8,29.75,ESE,103,2.0,2.0,24,0.00,,,0.00,WeatherCatV1.21B27,2013-08-31 21:23:00,
2013-08-31 16:28:00,106.3,63.1,29.75,South,175,2.0,6.0,25,0.00,,,0.00,WeatherCatV1.21B27,2013-08-31 21:28:00,
2013-08-31 16:33:00,105.7,63.7,29.75,ESE,115,2.0,5.0,26,0.00,,,0.00,WeatherCatV1.21B27,2013-08-31 21:33:00,
2013-08-31 16:38:00,105.5,63.5,29.75,ESE,103,4.0,4.0,26,0.00,,,0.00,WeatherCatV1.21B27,2013-08-31 21:38:00,
2013-08-31 16:43:00,105.0,64.2,29.75,SW,231,1.0,5.0,27,0.00,,,0.00,WeatherCatV1.21B27,2013-08-31 21:43:00,
2013-08-31 16:48:00,104.1,63.4,29.74,South,172,4.0,6.0,27,0.00,,,0.00,WeatherCatV1.21B27,2013-08-31 21:48:00,
2013-08-31 16:53:00,102.7,62.2,29.74,SSW,213,1.0,2.0,27,0.00,,,0.00,WeatherCatV1.21B27,2013-08-31 21:53:00,
2013-08-31 16:58:00,102.0,63.7,29.74,SE,140,0.0,2.0,29,0.00,,,0.00,WeatherCatV1.21B27,2013-08-31 21:58:00,
2013-08-31 17:03:00,103.2,63.7,29.74,SSE,152,3.0,4.0,28,0.00,,,0.00,WeatherCatV1.21B27,2013-08-31 22:03:00,
2013-08-31 17:08:00,103.0,64.5,29.74,South,176,2.0,4.0,29,0.00,,,0.00,WeatherCatV1.21B27,2013-08-31 22:08:00,
2013-08-31 17:13:00,103.1,64.6,29.74,South,191,1.0,4.0,29,0.00,,,0.00,WeatherCatV1.21B27,2013-08-31 22:13:00,
2013-08-31 17:18:00,103.2,64.7,29.74,SW,214,4.0,4.0,29,0.00,,,0.00,WeatherCatV1.21B27,2013-08-31 22:18:00,
2013-08-31 17:23:00,102.9,64.4,29.74,SE,141,3.0,6.0,29,0.00,,,0.00,WeatherCatV1.21B27,2013-08-31 22:23:00,
2013-08-31 17:28:00,102.9,64.4,29.74,SSE,160,4.0,6.0,29,0.00,,,0.00,WeatherCatV1.21B27,2013-08-31 22:28:00,
2013-08-31 17:33:00,103.0,64.5,29.73,SSE,155,1.0,4.0,29,0.00,,,0.00,WeatherCatV1.21B27,2013-08-31 22:33:00,
2013-08-31 17:38:00,103.2,63.7,29.73,WSW,243,4.0,6.0,28,0.00,,,0.00,WeatherCatV1.21B27,2013-08-31 22:38:00,
2013-08-31 17:43:00,102.8,64.3,29.73,SSW,199,1.0,6.0,29,0.00,,,0.00,WeatherCatV1.21B27,2013-08-31 22:43:00,
2013-08-31 17:48:00,102.7,64.3,29.73,SW,217,0.0,3.0,29,0.00,,,0.00,WeatherCatV1.21B27,2013-08-31 22:48:00,
2013-08-31 17:53:00,102.8,63.3,29.73,SE,142,2.0,4.0,28,0.00,,,0.00,WeatherCatV1.21B27,2013-08-31 22:53:00,
2013-08-31 17:58:00,102.2,63.8,29.73,South,188,2.0,3.0,29,0.00,,,0.00,WeatherCatV1.21B27,2013-08-31 22:58:00,
2013-08-31 18:03:00,102.1,63.8,29.73,SSE,165,1.0,3.0,29,0.00,,,0.00,WeatherCatV1.21B27,2013-08-31 23:03:00,
2013-08-31 18:08:00,102.1,63.8,29.73,SSE,157,1.0,3.0,29,0.00,,,0.00,WeatherCatV1.21B27,2013-08-31 23:08:00,
2013-08-31 18:13:00,102.2,63.8,29.74,SE,143,2.0,4.0,29,0.00,,,0.00,WeatherCatV1.21B27,2013-08-31 23:13:00,
2013-08-31 18:18:00,102.0,63.7,29.73,SSE,165,0.0,2.0,29,0.00,,,0.00,WeatherCatV1.21B27,2013-08-31 23:18:00,
2013-08-31 18:23:00,101.7,63.4,29.73,SSE,162,1.0,3.0,29,0.00,,,0.00,WeatherCatV1.21B27,2013-08-31 23:23:00,
2013-08-31 18:28:00,101.4,63.2,29.73,SSE,158,1.0,3.0,29,0.00,,,0.00,WeatherCatV1.21B27,2013-08-31 23:28:00,
2013-08-31 18:33:00,100.9,63.7,29.73,SSW,207,1.0,4.0,30,0.00,,,0.00,WeatherCatV1.21B27,2013-08-31 23:33:00,
2013-08-31 18:38:00,100.6,63.4,29.73,East,100,2.0,4.0,30,0.00,,,0.00,WeatherCatV1.21B27,2013-08-31 23:38:00,
2013-08-31 18:43:00,100.3,64.1,29.73,South,169,2.0,2.0,31,0.00,,,0.00,WeatherCatV1.21B27,2013-08-31 23:43:00,
2013-08-31 18:48:00,100.1,64.0,29.73,ESE,123,3.0,3.0,31,0.00,,,0.00,WeatherCatV1.21B27,2013-08-31 23:48:00,
2013-08-31 18:53:00,99.7,63.6,29.73,SE,143,2.0,3.0,31,0.00,,,0.00,WeatherCatV1.21B27,2013-08-31 23:53:00,
2013-08-31 18:58:00,99.1,63.1,29.73,ESE,116,1.0,3.0,31,0.00,,,0.00,WeatherCatV1.21B27,2013-08-31 23:58:00,
2013-08-31 19:03:00,98.6,63.6,29.73,SE,134,2.0,5.0,32,0.00,,,0.00,WeatherCatV1.21B27,2013-09-01 00:03:00,
2013-08-31 19:08:00,98.1,63.1,29.73,SE,134,4.0,4.0,32,0.00,,,0.00,WeatherCatV1.21B27,2013-09-01 00:08:00,
2013-08-31 19:13:00,97.7,63.7,29.73,SSE,167,2.0,6.0,33,0.00,,,0.00,WeatherCatV1.21B27,2013-09-01 00:13:00,
2013-08-31 19:18:00,97.4,63.4,29.73,SSE,153,2.0,4.0,33,0.00,,,0.00,WeatherCatV1.21B27,2013-09-01 00:18:00,
2013-08-31 19:23:00,97.1,64.0,29.73,SSW,207,2.0,3.0,34,0.00,,,0.00,WeatherCatV1.21B27,2013-09-01 00:23:00,
2013-08-31 19:28:00,96.8,63.7,29.73,SE,127,1.0,4.0,34,0.00,,,0.00,WeatherCatV1.21B27,2013-09-01 00:28:00,
2013-08-31 19:33:00,96.5,64.3,29.73,South,186,3.0,4.0,35,0.00,,,0.00,WeatherCatV1.21B27,2013-09-01 00:33:00,
2013-08-31 19:38:00,96.2,64.1,29.74,SSE,152,3.0,3.0,35,0.00,,,0.00,WeatherCatV1.21B27,2013-09-01 00:38:00,
2013-08-31 19:43:00,95.8,64.5,29.74,SE,140,2.0,6.0,36,0.00,,,0.00,WeatherCatV1.21B27,2013-09-01 00:43:00,
2013-08-31 19:48:00,95.5,65.8,29.74,SSE,157,2.0,4.0,38,0.00,,,0.00,WeatherCatV1.21B27,2013-09-01 00:48:00,
2013-08-31 19:53:00,95.1,65.4,29.74,SW,227,2.0,5.0,38,0.00,,,0.00,WeatherCatV1.21B27,2013-09-01 00:53:00,
2013-08-31 19:58:00,94.8,65.9,29.74,SE,143,2.0,3.0,39,0.00,,,0.00,WeatherCatV1.21B27,2013-09-01 00:58:00,
2013-08-31 20:03:00,94.5,65.7,29.74,ESE,122,3.0,5.0,39,0.00,,,0.00,WeatherCatV1.21B27,2013-09-01 01:03:00,
2013-08-31 20:08:00,94.2,66.1,29.74,SE,131,3.0,3.0,40,0.00,,,0.00,WeatherCatV1.21B27,2013-09-01 01:08:00,
2013-08-31 20:13:00,94.0,65.9,29.74,SSE,167,3.0,3.0,40,0.00,,,0.00,WeatherCatV1.21B27,2013-09-01 01:13:00,
2013-08-31 20:18:00,93.8,66.5,29.74,South,183,1.0,3.0,41,0.00,,,0.00,WeatherCatV1.21B27,2013-09-01 01:18:00,
2013-08-31 20:23:00,93.6,66.3,29.75,SE,131,2.0,4.0,41,0.00,,,0.00,WeatherCatV1.21B27,2013-09-01 01:23:00,
2013-08-31 20:28:00,93.4,66.1,29.75,SSW,203,2.0,3.0,41,0.00,,,0.00,WeatherCatV1.21B27,2013-09-01 01:28:00,
2013-08-31 20:33:00,93.2,66.6,29.75,South,176,1.0,2.0,42,0.00,,,0.00,WeatherCatV1.21B27,2013-09-01 01:33:00,
2013-08-31 20:38:00,93.0,66.5,29.75,SSE,148,2.0,6.0,42,0.00,,,0.00,WeatherCatV1.21B27,2013-09-01 01:38:00,
2013-08-31 20:43:00,92.8,67.0,29.75,South,185,3.0,5.0,43,0.00,,,0.00,WeatherCatV1.21B27,2013-09-01 01:43:00,
2013-08-31 20:48:00,92.5,66.7,29.76,South,188,1.0,3.0,43,0.00,,,0.00,WeatherCatV1.21B27,2013-09-01 01:48:00,
2013-08-31 20:53:00,92.3,66.5,29.76,SE,141,2.0,3.0,43,0.00,,,0.00,WeatherCatV1.21B27,2013-09-01 01:53:00,
2013-08-31 20:58:00,92.1,67.0,29.76,South,184,0.0,2.0,44,0.00,,,0.00,WeatherCatV1.21B27,2013-09-01 01:58:00,
2013-08-31 21:03:00,92.0,66.9,29.76,South,169,2.0,4.0,44,0.00,,,0.00,WeatherCatV1.21B27,2013-09-01 02:03:00,
2013-08-31 21:08:00,91.8,66.7,29.77,SSE,166,4.0,4.0,44,0.00,,,0.00,WeatherCatV1.21B27,2013-09-01 02:08:00,
2013-08-31 21:13:00,91.6,67.2,29.77,SE,137,2.0,3.0,45,0.00,,,0.00,WeatherCatV1.21B27,2013-09-01 02:13:00,
2013-08-31 21:18:00,91.4,67.0,29.77,SE,136,2.0,3.0,45,0.00,,,0.00,WeatherCatV1.21B27,2013-09-01 02:18:00,
2013-08-31 21:23:00,91.3,66.9,29.77,SE,129,2.0,4.0,45,0.00,,,0.00,WeatherCatV1.21B27,2013-09-01 02:23:00,
2013-08-31 21:28:00,91.1,67.4,29.77,SSE,152,2.0,4.0,46,0.00,,,0.00,WeatherCatV1.21B27,2013-09-01 02:28:00,
2013-08-31 21:33:00,91.0,67.3,29.77,SE,143,2.0,5.0,46,0.00,,,0.00,WeatherCatV1.21B27,2013-09-01 02:33:00,
2013-08-31 21:38:00,90.8,67.1,29.78,SSE,160,1.0,4.0,46,0.00,,,0.00,WeatherCatV1.21B27,2013-09-01 02:38:00,
2013-08-31 21:43:00,90.6,66.9,29.78,South,179,3.0,5.0,46,0.00,,,0.00,WeatherCatV1.21B27,2013-09-01 02:43:00,
2013-08-31 21:48:00,90.4,66.8,29.77,ESE,122,3.0,3.0,46,0.00,,,0.00,WeatherCatV1.21B27,2013-09-01 02:48:00,
2013-08-31 21:53:00,90.2,67.2,29.78,ESE,115,1.0,2.0,47,0.00,,,0.00,WeatherCatV1.21B27,2013-09-01 02:53:00,
2013-08-31 21:58:00,90.0,67.0,29.78,South,172,2.0,3.0,47,0.00,,,0.00,WeatherCatV1.21B27,2013-09-01 02:58:00,
2013-08-31 22:03:00,89.9,66.9,29.78,SE,140,4.0,6.0,47,0.00,,,0.00,WeatherCatV1.21B27,2013-09-01 03:03:00,
2013-08-31 22:08:00,89.8,66.8,29.78,SE,141,2.0,4.0,47,0.00,,,0.00,WeatherCatV1.21B27,2013-09-01 03:08:00,
2013-08-31 22:13:00,89.7,66.8,29.78,SE,136,3.0,5.0,47,0.00,,,0.00,WeatherCatV1.21B27,2013-09-01 03:13:00,
2013-08-31 22:18:00,89.5,67.2,29.78,ESE,113,2.0,3.0,48,0.00,,,0.00,WeatherCatV1.21B27,2013-09-01 03:18:00,
2013-08-31 22:23:00,89.4,67.1,29.78,SSW,198,1.0,3.0,48,0.00,,,0.00,WeatherCatV1.21B27,2013-09-01 03:23:00,
2013-08-31 22:28:00,89.2,66.9,29.78,SSE,153,1.0,2.0,48,0.00,,,0.00,WeatherCatV1.21B27,2013-09-01 03:28:00,
2013-08-31 22:33:00,89.0,67.3,29.78,SW,222,0.0,0.0,49,0.00,,,0.00,WeatherCatV1.21B27,2013-09-01 03:33:00,
2013-08-31 22:38:00,88.7,67.0,29.78,SSW,205,0.0,1.0,49,0.00,,,0.00,WeatherCatV1.21B27,2013-09-01 03:38:00,
2013-08-31 22:43:00,88.4,66.8,29.78,SSW,212,1.0,3.0,49,0.00,,,0.00,WeatherCatV1.21B27,2013-09-01 03:43:00,
2013-08-31 22:48:00,88.1,67.1,29.78,SSW,193,0.0,1.0,50,0.00,,,0.00,WeatherCatV1.21B27,2013-09-01 03:48:00,
2013-08-31 22:53:00,87.9,66.9,29.78,West,259,3.0,3.0,50,0.00,,,0.00,WeatherCatV1.21B27,2013-09-01 03:53:00,
2013-08-31 22:58:00,87.8,66.8,29.78,South,189,0.0,2.0,50,0.00,,,0.00,WeatherCatV1.21B27,2013-09-01 03:58:00,
2013-08-31 23:01:00,87.8,66.8,29.78,SSW,198,0.0,0.0,50,0.00,,,0.00,WeatherCatV1.21B27,2013-09-01 04:01:00,
2013-08-31 23:06:00,87.5,67.1,29.78,SW,232,0.0,1.0,51,0.00,,,0.00,WeatherCatV1.21B27,2013-09-01 04:06:00,
2013-08-31 23:11:00,87.3,66.9,29.78,SSW,195,0.0,1.0,51,0.00,,,0.00,WeatherCatV1.21B27,2013-09-01 04:11:00,
2013-08-31 23:16:00,87.2,67.4,29.78,SSW,192,1.0,1.0,52,0.00,,,0.00,WeatherCatV1.21B27,2013-09-01 04:16:00,
2013-08-31 23:21:00,87.0,67.2,29.78,SE,126,1.0,2.0,52,0.00,,,0.00,WeatherCatV1.21B27,2013-09-01 04:21:00,
2013-08-31 23:26:00,87.0,67.2,29.78,South,179,0.0,3.0,52,0.00,,,0.00,WeatherCatV1.21B27,2013-09-01 04:26:00,
2013-08-31 23:31:00,86.8,67.6,29.78,South,169,0.0,0.0,53,0.00,,,0.00,WeatherCatV1.21B27,2013-09-01 04:31:00,
2013-08-31 23:36:00,86.7,67.5,29.78,South,181,0.0,2.0,53,0.00,,,0.00,WeatherCatV1.21B27,2013-09-01 04:36:00,
2013-08-31 23:41:00,86.6,67.4,29.78,SSW,192,1.0,2.0,53,0.00,,,0.00,WeatherCatV1.21B27,2013-09-01 04:41:00,
2013-08-31 23:46:00,86.5,67.3,29.78,South,191,0.0,0.0,53,0.00,,,0.00,WeatherCatV1.21B27,2013-09-01 04:46:00,
2013-08-31 23:51:00,86.2,67.6,29.78,WSW,237,0.0,2.0,54,0.00,,,0.00,WeatherCatV1.21B27,2013-09-01 04:51:00,
2013-08-31 23:56:00,85.9,67.3,29.78,SSE,150,0.0,4.0,54,0.00,,,0.00,WeatherCatV1.21B27,2013-09-01 04:56:00,